#timestamp,LO_Frequency,Hit,StdDev 
1607921155.5,286047001.7,P
1607921175.4,286047001.7,N
1607921195.2,286047002.1,N
1607921215.0,286047002.0,N
1607921215.9,286047002.0,N
1607921235.8,286047000.1,N
1607921255.6,286047001.6,N
1607921275.4,286047000.1,N
1607921295.3,286047002.8,Y
1607921315.1,286047001.0,P
1607921335.9,286047001.0,P
1607921355.7,286046998.2,P
1607921375.5,286046998.9,N
1607921395.4,286046997.9,N
1607921415.2,286046995.0,Y
1607921435.0,286046997.3,P
1607921435.9,286046997.3,N
1607921455.8,286046995.3,P
1607921475.6,286046995.2,Y
1607921495.5,286047000.8,P
1607921515.3,286046999.4,N
1607921535.1,286046998.2,N
1607921555.9,286047001.1,N
1607921575.7,286047001.1,N
1607921595.5,286047000.6,N
1607921615.4,286047001.8,N
1607921635.2,286047004.1,N
1607921655.1,286047002.5,N
1607921656.0,286047002.5,N
1607921675.8,286047002.3,N
1607921695.6,286046999.7,N
1607921715.5,286047001.8,N
1607921735.3,286047002.7,N
1607921755.1,286047002.6,N
1607921775.9,286047001.4,N
1607921795.7,286047002.8,N
1607921815.6,286047002.1,N
1607921835.4,286047000.0,N
1607921855.2,286047000.9,N
1607921875.1,286047001.1,N
1607921876.0,286047001.1,N
1607921895.8,286046998.5,N
1607921915.6,286046998.2,N
1607921935.5,286046998.1,N
1607921955.3,286047001.0,N
1607921975.2,286047002.5,N
1607921995.9,286047004.3,N
